Weather History for KAIA - September, 2012

Change the Weather History Date:

Thursday, September 6, 2012

  Actual Average Record
Temperature  
Mean Temperature 70 °F 64 °F  
Max Temperature 92 °F 80 °F 101 °F (2013)
Min Temperature 48 °F 47 °F 33 °F (2010)
Degree Days  
Heating Degree Days 0 4  
Month to date heating degree days 1 18  
Since 1 July heating degree days 12 55  
Cooling Degree Days 5 2  
Month to date cooling degree days 38 17  
Year to date cooling degree days 947 540  
Growing Degree Days 20 (Base 50)    
Moisture  
Dew Point 31 °F    
Average Humidity 31    
Maximum Humidity 54    
Minimum Humidity 7    
Precipitation  
Precipitation 0.00 in 0.05 in 0.65 in (1986)
Month to date precipitation 0.00 0.33  
Year to date precipitation 5.81 12.74  
Sea Level Pressure  
Sea Level Pressure 29.85 in    
Wind  
Wind Speed 13 mph (NNW)    
Max Wind Speed 25 mph    
Max Gust Speed 31 mph    
Visibility 10 miles    
Events      
T = Trace of Precipitation, MM = Missing Value Source: NWS Daily Summary

Daily Weather History Graph

Daily Weather History Graph

Search for Another Location

Airport or City:

Trip Planner

Search our weather history database for the weather conditions in past years. The results will help you decide how hot, cold, wet, or windy it might be!

Date:

Astronomy

Sep. 06, 2012 Rise Set
Actual Time 6:22 AM MDT 7:15 PM MDT
Civil Twilight 5:54 AM MDT 7:43 PM MDT
Nautical Twilight 5:20 AM MDT 8:17 PM MDT
Astronomical Twilight 4:45 AM MDT 8:52 PM MDT
Moon 10:20 PM MDT (9/6) 12:30 PM MDT (9/6)
Length of Visible Light 13h 49m
Length of Day
12h 52m
Waning Gibbous, 67% of the Moon is Illuminated
Sep 6
Waning Gibbous
Sep 8
Last Quarter
Sep 15
New
Sep 22
First Quarter
Sep 29
Full

Hourly Weather History & Observations

Time (MDT) Temp. Dew Point Humidity Pressure Visibility Wind Dir Wind Speed Gust Speed Precip Events Conditions
12:53 AM 64.0 °F 35.1 °F 34% 29.84 in 10.0 mi South 16.1 mph - N/A   Clear
1:53 AM 63.0 °F 35.1 °F 35% 29.83 in 10.0 mi South 15.0 mph - N/A   Clear
2:53 AM 62.1 °F 36.0 °F 38% 29.82 in 10.0 mi South 13.8 mph - N/A   Clear
3:53 AM 64.9 °F 37.0 °F 36% 29.80 in 10.0 mi South 16.1 mph - N/A   Clear
4:53 AM 60.1 °F 36.0 °F 41% 29.80 in 10.0 mi South 9.2 mph - N/A   Clear
5:53 AM 52.0 °F 35.1 °F 53% 29.83 in 10.0 mi South 8.1 mph - N/A   Clear
6:53 AM 48.9 °F 32.0 °F 52% 29.87 in 10.0 mi WSW 5.8 mph - N/A   Clear
7:53 AM 59.0 °F 33.1 °F 38% 29.88 in 10.0 mi West 5.8 mph - N/A   Clear
8:53 AM 66.0 °F 27.0 °F 23% 29.87 in 10.0 mi WNW 12.7 mph - N/A   Clear
9:53 AM 73.9 °F 28.0 °F 18% 29.86 in 10.0 mi WNW 18.4 mph - N/A   Clear
10:53 AM 80.1 °F 30.0 °F 16% 29.84 in 10.0 mi WNW 13.8 mph - N/A   Clear
11:53 AM 86.0 °F 28.9 °F 13% 29.83 in 10.0 mi NW 12.7 mph 18.4 mph N/A   Clear
12:53 PM 88.0 °F 26.1 °F 11% 29.80 in 10.0 mi WNW 6.9 mph - N/A   Clear
1:53 PM 91.0 °F 19.0 °F 7% 29.79 in 10.0 mi NNW 8.1 mph 17.3 mph N/A   Clear
2:53 PM 91.9 °F 19.9 °F 7% 29.77 in 10.0 mi NNW 12.7 mph 17.3 mph N/A   Clear
3:53 PM 91.0 °F 21.0 °F 8% 29.75 in 10.0 mi NNW 5.8 mph 16.1 mph N/A   Clear
4:53 PM 88.0 °F 27.0 °F 11% 29.76 in 10.0 mi NE 13.8 mph - N/A   Clear
5:53 PM 84.0 °F 28.9 °F 14% 29.80 in 10.0 mi NE 20.7 mph 26.5 mph N/A   Clear
6:53 PM 77.0 °F 32.0 °F 19% 29.87 in 10.0 mi NNE 18.4 mph 25.3 mph N/A   Clear
7:53 PM 72.0 °F 35.1 °F 26% 29.88 in 10.0 mi NNE 18.4 mph 26.5 mph N/A   Clear
8:53 PM 70.0 °F 36.0 °F 29% 29.91 in 10.0 mi NNE 17.3 mph - N/A   Clear
9:53 PM 69.1 °F 37.0 °F 31% 29.94 in 10.0 mi NE 18.4 mph - N/A   Clear
10:53 PM 66.0 °F 37.0 °F 34% 29.97 in 10.0 mi NNE 12.7 mph - N/A   Clear
11:53 PM 63.0 °F 36.0 °F 37% 30.00 in 10.0 mi NNE 12.7 mph - N/A   Clear